Weather in Verkhneozerskiy

Russia / Arkhangel'skaya Oblast'     64°28′40″N   37°56′05″E
temp.,
°C
wind,
m/s
gust,
m/s
humid.,
%
clouds,
%
prec.,
mm/h
press.,
hPa
HPBL,
m
13 may, thu
thu1300:00+12ssw22660 0.0 102141
03:00+10ssw35720 0.0 102074
06:00+13ssw26670 0.0 1019121
09:00+16ssw46514 0.0 1018224
12:00+20ssw36446 0.0 1017357
15:00+23sw35405 0.0 1016685
18:00+23ssw134110 0.0 1015383
21:00+18sse11545 0.0 101411
14 may, fri
fri1400:00+15sse11635 0.0 101411
03:00+12ssw228869 0.4 101321
06:00+15s127910 0.8 101266
09:00+19ssw236597 1.1 1011362
12:00+19ssw486199 0.4 1011654
15:00+16sw4773100 0.4 1012402
18:00+16sw487482 0.4 1012350
21:00+12ssw118219 0.7 101224
15 may, sat
sat1500:00+11ssw2386100 0.0 101387
03:00+10s248495 0.0 101394
06:00+10ssw128593 0.0 101394
09:00+14ssw236610 0.0 1013269
12:00+17wsw11497 0.0 1012477
15:00+16ne4457100 0.0 1011434
18:00+9nne5782100 0.0 1010244
21:00+7nne478548 0.0 1007158
16 may, sun
sun1600:00+6nne3791100 0.0 1006148
03:00+8nne3789100 0.3 1004170
06:00+8n4893100 1.1 1003228
09:00+7n4789100 1.1 1004282
12:00+5n4590100 0.1 1007246
15:00+8n3478100 0.1 1009380
18:00+6n238088 0.0 1011334
21:00+5nne1184100 0.0 1012166
17 may, mon
mon1700:00+5ssw228981 0.0 1013133
03:00+3ssw249782 0.0 1015123
06:00+5ssw2386100 0.0 1015140
09:00+8ssw2475100 0.0 1016212
12:00+14sw366328 0.0 1016449
15:00+17sw365192 0.0 1016782
18:00+15sw2458100 0.0 1016133
21:00+12nne2270100 0.0 101733